Simultaneous Nadir Overpasses (SNOs) Predictions

Prediction of SNOs over PacNW region [( 10.00, 139.50) to ( 22.70, 165.60)] between NOAA-19 and NPP Satellites:

Table of predicted SNOs over PacNW region for the next 30.0 days since TLE Epoch: 1/26/2013
Index Date (NOAA-19) Time (NOAA-19) NOAA-19 Lat,Lon Date (NPP) Time (NPP) NPP Lat,Lon Distance(km) Time Diff (sec)
1 01/28/2013 03:43:05 10.06, 146.50 01/28/2013 03:46:41 8.41, 142.85 440.54 216
2 01/28/2013 14:40:18 11.47, 165.59 01/28/2013 14:40:32 12.13, 162.57 336.59 14
3 01/28/2013 16:19:30 21.57, 142.50 01/28/2013 16:19:11 22.17, 139.59 307.50 19
4 01/29/2013 03:35:48 22.67, 146.18 01/29/2013 03:32:11 24.25, 143.82 297.84 217
5 02/09/2013 15:50:29 22.61, 150.00 02/09/2013 15:53:44 23.47, 146.20 400.03 195
6 02/10/2013 03:07:04 22.65, 153.42 02/10/2013 03:06:29 22.08, 150.65 291.44 35
7 02/10/2013<
